Index of /20260430/WXO-DD/model_gdps/15km/12/075
Name Last modified Size Description
Parent Directory -
20260430T12Z_MSC_GDPS_AbsoluteVorticity_IsbL-0200_LatLon0.15_PT075H.grib2 2026-04-30 16:12 1.5M
20260430T12Z_MSC_GDPS_AbsoluteVorticity_IsbL-0250_LatLon0.15_PT075H.grib2 2026-04-30 16:12 1.3M
20260430T12Z_MSC_GDPS_AbsoluteVorticity_IsbL-0500_LatLon0.15_PT075H.grib2 2026-04-30 16:12 1.4M
20260430T12Z_MSC_GDPS_AbsoluteVorticity_IsbL-0700_LatLon0.15_PT075H.grib2 2026-04-30 16:12 1.6M
20260430T12Z_MSC_GDPS_AbsoluteVorticity_IsbL-0850_LatLon0.15_PT075H.grib2 2026-04-30 16:12 1.6M
20260430T12Z_MSC_GDPS_AirTemp_AGL-120m_LatLon0.15_PT075H.grib2 2026-04-30 16:12 908K
20260430T12Z_MSC_GDPS_AirTemp_AGL-2m_LatLon0.15_PT075H.grib2 2026-04-30 16:12 1.0M
20260430T12Z_MSC_GDPS_AirTemp_AGL-40m_LatLon0.15_PT075H.grib2 2026-04-30 16:12 812K
20260430T12Z_MSC_GDPS_AirTemp_AGL-80m_LatLon0.15_PT075H.grib2 2026-04-30 16:12 800K
20260430T12Z_MSC_GDPS_AirTemp_IsbL-0001_LatLon0.15_PT075H.grib2 2026-04-30 16:12 650K
20260430T12Z_MSC_GDPS_AirTemp_IsbL-0005_LatLon0.15_PT075H.grib2 2026-04-30 16:12 682K
20260430T12Z_MSC_GDPS_AirTemp_IsbL-0010_LatLon0.15_PT075H.grib2 2026-04-30 16:12 762K
20260430T12Z_MSC_GDPS_AirTemp_IsbL-0020_LatLon0.15_PT075H.grib2 2026-04-30 16:12 789K
20260430T12Z_MSC_GDPS_AirTemp_IsbL-0030_LatLon0.15_PT075H.grib2 2026-04-30 16:12 839K
20260430T12Z_MSC_GDPS_AirTemp_IsbL-0050_LatLon0.15_PT075H.grib2 2026-04-30 16:12 814K
20260430T12Z_MSC_GDPS_AirTemp_IsbL-0100_LatLon0.15_PT075H.grib2 2026-04-30 16:12 970K
20260430T12Z_MSC_GDPS_AirTemp_IsbL-0150_LatLon0.15_PT075H.grib2 2026-04-30 16:12 1.0M
20260430T12Z_MSC_GDPS_AirTemp_IsbL-0175_LatLon0.15_PT075H.grib2 2026-04-30 16:12 962K
20260430T12Z_MSC_GDPS_AirTemp_IsbL-0200_LatLon0.15_PT075H.grib2 2026-04-30 16:12 1.0M
20260430T12Z_MSC_GDPS_AirTemp_IsbL-0225_LatLon0.15_PT075H.grib2 2026-04-30 16:12 1.0M
20260430T12Z_MSC_GDPS_AirTemp_IsbL-0250_LatLon0.15_PT075H.grib2 2026-04-30 16:12 1.0M
20260430T12Z_MSC_GDPS_AirTemp_IsbL-0275_LatLon0.15_PT075H.grib2 2026-04-30 16:12 1.0M
20260430T12Z_MSC_GDPS_AirTemp_IsbL-0300_LatLon0.15_PT075H.grib2 2026-04-30 16:12 1.0M
20260430T12Z_MSC_GDPS_AirTemp_IsbL-0350_LatLon0.15_PT075H.grib2 2026-04-30 16:12 934K
20260430T12Z_MSC_GDPS_AirTemp_IsbL-0400_LatLon0.15_PT075H.grib2 2026-04-30 16:12 944K
20260430T12Z_MSC_GDPS_AirTemp_IsbL-0450_LatLon0.15_PT075H.grib2 2026-04-30 16:12 965K
20260430T12Z_MSC_GDPS_AirTemp_IsbL-0500_LatLon0.15_PT075H.grib2 2026-04-30 16:12 1.0M
20260430T12Z_MSC_GDPS_AirTemp_IsbL-0550_LatLon0.15_PT075H.grib2 2026-04-30 16:12 1.0M
20260430T12Z_MSC_GDPS_AirTemp_IsbL-0600_LatLon0.15_PT075H.grib2 2026-04-30 16:12 898K
20260430T12Z_MSC_GDPS_AirTemp_IsbL-0650_LatLon0.15_PT075H.grib2 2026-04-30 16:12 923K
20260430T12Z_MSC_GDPS_AirTemp_IsbL-0700_LatLon0.15_PT075H.grib2 2026-04-30 16:12 960K
20260430T12Z_MSC_GDPS_AirTemp_IsbL-0750_LatLon0.15_PT075H.grib2 2026-04-30 16:12 1.0M
20260430T12Z_MSC_GDPS_AirTemp_IsbL-0800_LatLon0.15_PT075H.grib2 2026-04-30 16:12 1.1M
20260430T12Z_MSC_GDPS_AirTemp_IsbL-0850_LatLon0.15_PT075H.grib2 2026-04-30 16:12 1.1M
20260430T12Z_MSC_GDPS_AirTemp_IsbL-0875_LatLon0.15_PT075H.grib2 2026-04-30 16:12 1.2M
20260430T12Z_MSC_GDPS_AirTemp_IsbL-0900_LatLon0.15_PT075H.grib2 2026-04-30 16:12 1.1M
20260430T12Z_MSC_GDPS_AirTemp_IsbL-0925_LatLon0.15_PT075H.grib2 2026-04-30 16:12 1.1M
20260430T12Z_MSC_GDPS_AirTemp_IsbL-0950_LatLon0.15_PT075H.grib2 2026-04-30 16:12 1.1M
20260430T12Z_MSC_GDPS_AirTemp_IsbL-0970_LatLon0.15_PT075H.grib2 2026-04-30 16:12 1.2M
20260430T12Z_MSC_GDPS_AirTemp_IsbL-0985_LatLon0.15_PT075H.grib2 2026-04-30 16:12 1.1M
20260430T12Z_MSC_GDPS_AirTemp_IsbL-1000_LatLon0.15_PT075H.grib2 2026-04-30 16:12 1.1M
20260430T12Z_MSC_GDPS_AirTemp_IsbL-1015_LatLon0.15_PT075H.grib2 2026-04-30 16:12 865K
20260430T12Z_MSC_GDPS_Albedo_Sfc_LatLon0.15_PT075H.grib2 2026-04-30 16:12 242K
20260430T12Z_MSC_GDPS_CAPE_Sfc_LatLon0.15_PT075H.grib2 2026-04-30 16:12 3.8M
20260430T12Z_MSC_GDPS_CIN_Sfc_LatLon0.15_PT075H.grib2 2026-04-30 16:12 2.9M
20260430T12Z_MSC_GDPS_CloudWater_EAtm_LatLon0.15_PT075H.grib2 2026-04-30 16:12 536K
20260430T12Z_MSC_GDPS_ConvectivePrecip-Accum_Sfc_LatLon0.15_PT075H.grib2 2026-04-30 16:12 3.1M
20260430T12Z_MSC_GDPS_DewPointDepression_AGL-2m_LatLon0.15_PT075H.grib2 2026-04-30 16:12 765K
20260430T12Z_MSC_GDPS_DewPointDepression_IsbL-0010_LatLon0.15_PT075H.grib2 2026-04-30 16:12 65K
20260430T12Z_MSC_GDPS_DewPointDepression_IsbL-0020_LatLon0.15_PT075H.grib2 2026-04-30 16:12 68K
20260430T12Z_MSC_GDPS_DewPointDepression_IsbL-0030_LatLon0.15_PT075H.grib2 2026-04-30 16:12 84K
20260430T12Z_MSC_GDPS_DewPointDepression_IsbL-0050_LatLon0.15_PT075H.grib2 2026-04-30 16:12 375K
20260430T12Z_MSC_GDPS_DewPointDepression_IsbL-0100_LatLon0.15_PT075H.grib2 2026-04-30 16:12 407K
20260430T12Z_MSC_GDPS_DewPointDepression_IsbL-0150_LatLon0.15_PT075H.grib2 2026-04-30 16:12 465K
20260430T12Z_MSC_GDPS_DewPointDepression_IsbL-0175_LatLon0.15_PT075H.grib2 2026-04-30 16:12 586K
20260430T12Z_MSC_GDPS_DewPointDepression_IsbL-0200_LatLon0.15_PT075H.grib2 2026-04-30 16:12 690K
20260430T12Z_MSC_GDPS_DewPointDepression_IsbL-0225_LatLon0.15_PT075H.grib2 2026-04-30 16:12 788K
20260430T12Z_MSC_GDPS_DewPointDepression_IsbL-0250_LatLon0.15_PT075H.grib2 2026-04-30 16:12 868K
20260430T12Z_MSC_GDPS_DewPointDepression_IsbL-0275_LatLon0.15_PT075H.grib2 2026-04-30 16:12 885K
20260430T12Z_MSC_GDPS_DewPointDepression_IsbL-0300_LatLon0.15_PT075H.grib2 2026-04-30 16:12 923K
20260430T12Z_MSC_GDPS_DewPointDepression_IsbL-0350_LatLon0.15_PT075H.grib2 2026-04-30 16:12 957K
20260430T12Z_MSC_GDPS_DewPointDepression_IsbL-0400_LatLon0.15_PT075H.grib2 2026-04-30 16:12 1.0M
20260430T12Z_MSC_GDPS_DewPointDepression_IsbL-0450_LatLon0.15_PT075H.grib2 2026-04-30 16:12 1.0M
20260430T12Z_MSC_GDPS_DewPointDepression_IsbL-0500_LatLon0.15_PT075H.grib2 2026-04-30 16:12 1.0M
20260430T12Z_MSC_GDPS_DewPointDepression_IsbL-0550_LatLon0.15_PT075H.grib2 2026-04-30 16:12 1.0M
20260430T12Z_MSC_GDPS_DewPointDepression_IsbL-0600_LatLon0.15_PT075H.grib2 2026-04-30 16:12 1.0M
20260430T12Z_MSC_GDPS_DewPointDepression_IsbL-0650_LatLon0.15_PT075H.grib2 2026-04-30 16:12 1.1M
20260430T12Z_MSC_GDPS_DewPointDepression_IsbL-0700_LatLon0.15_PT075H.grib2 2026-04-30 16:12 1.1M
20260430T12Z_MSC_GDPS_DewPointDepression_IsbL-0750_LatLon0.15_PT075H.grib2 2026-04-30 16:12 1.1M
20260430T12Z_MSC_GDPS_DewPointDepression_IsbL-0800_LatLon0.15_PT075H.grib2 2026-04-30 16:12 1.2M
20260430T12Z_MSC_GDPS_DewPointDepression_IsbL-0850_LatLon0.15_PT075H.grib2 2026-04-30 16:12 1.2M
20260430T12Z_MSC_GDPS_DewPointDepression_IsbL-0875_LatLon0.15_PT075H.grib2 2026-04-30 16:12 1.1M
20260430T12Z_MSC_GDPS_DewPointDepression_IsbL-0900_LatLon0.15_PT075H.grib2 2026-04-30 16:12 1.1M
20260430T12Z_MSC_GDPS_DewPointDepression_IsbL-0925_LatLon0.15_PT075H.grib2 2026-04-30 16:12 1.0M
20260430T12Z_MSC_GDPS_DewPointDepression_IsbL-0950_LatLon0.15_PT075H.grib2 2026-04-30 16:12 1.0M
20260430T12Z_MSC_GDPS_DewPointDepression_IsbL-0970_LatLon0.15_PT075H.grib2 2026-04-30 16:12 1.0M
20260430T12Z_MSC_GDPS_DewPointDepression_IsbL-0985_LatLon0.15_PT075H.grib2 2026-04-30 16:12 1.0M
20260430T12Z_MSC_GDPS_DewPointDepression_IsbL-1000_LatLon0.15_PT075H.grib2 2026-04-30 16:12 1.0M
20260430T12Z_MSC_GDPS_DewPointDepression_IsbL-1015_LatLon0.15_PT075H.grib2 2026-04-30 16:12 919K
20260430T12Z_MSC_GDPS_DewPoint_AGL-2m_LatLon0.15_PT075H.grib2 2026-04-30 16:12 613K
20260430T12Z_MSC_GDPS_DownwardLongwaveRadiationFlux-Accum_Sfc_LatLon0.15_PT075H.grib2 2026-04-30 16:12 674K
20260430T12Z_MSC_GDPS_DownwardShortwaveRadiationFlux-Accum_NTAtm_LatLon0.15_PT075H.grib2 2026-04-30 16:12 194K
20260430T12Z_MSC_GDPS_DownwardShortwaveRadiationFlux-Accum_Sfc_LatLon0.15_PT075H.grib2 2026-04-30 16:12 1.1M
20260430T12Z_MSC_GDPS_FreezingRain-Accum1h_Sfc_LatLon0.15_PT075H.grib2 2026-04-30 16:12 35K
20260430T12Z_MSC_GDPS_FreezingRain-Accum3h_Sfc_LatLon0.15_PT075H.grib2 2026-04-30 16:12 56K
20260430T12Z_MSC_GDPS_FreezingRain-Accum_Sfc_LatLon0.15_PT075H.grib2 2026-04-30 16:12 320K
20260430T12Z_MSC_GDPS_GeopotentialHeight_IsbL-0001_LatLon0.15_PT075H.grib2 2026-04-30 16:12 365K
20260430T12Z_MSC_GDPS_GeopotentialHeight_IsbL-0005_LatLon0.15_PT075H.grib2 2026-04-30 16:12 488K
20260430T12Z_MSC_GDPS_GeopotentialHeight_IsbL-0010_LatLon0.15_PT075H.grib2 2026-04-30 16:12 481K
20260430T12Z_MSC_GDPS_GeopotentialHeight_IsbL-0020_LatLon0.15_PT075H.grib2 2026-04-30 16:12 413K
20260430T12Z_MSC_GDPS_GeopotentialHeight_IsbL-0030_LatLon0.15_PT075H.grib2 2026-04-30 16:12 571K
20260430T12Z_MSC_GDPS_GeopotentialHeight_IsbL-0050_LatLon0.15_PT075H.grib2 2026-04-30 16:12 569K
20260430T12Z_MSC_GDPS_GeopotentialHeight_IsbL-0100_LatLon0.15_PT075H.grib2 2026-04-30 16:12 611K
20260430T12Z_MSC_GDPS_GeopotentialHeight_IsbL-0150_LatLon0.15_PT075H.grib2 2026-04-30 16:12 626K
20260430T12Z_MSC_GDPS_GeopotentialHeight_IsbL-0175_LatLon0.15_PT075H.grib2 2026-04-30 16:12 628K
20260430T12Z_MSC_GDPS_GeopotentialHeight_IsbL-0200_LatLon0.15_PT075H.grib2 2026-04-30 16:12 633K
20260430T12Z_MSC_GDPS_GeopotentialHeight_IsbL-0225_LatLon0.15_PT075H.grib2 2026-04-30 16:12 630K
20260430T12Z_MSC_GDPS_GeopotentialHeight_IsbL-0250_LatLon0.15_PT075H.grib2 2026-04-30 16:12 637K
20260430T12Z_MSC_GDPS_GeopotentialHeight_IsbL-0275_LatLon0.15_PT075H.grib2 2026-04-30 16:12 640K
20260430T12Z_MSC_GDPS_GeopotentialHeight_IsbL-0300_LatLon0.15_PT075H.grib2 2026-04-30 16:12 639K
20260430T12Z_MSC_GDPS_GeopotentialHeight_IsbL-0350_LatLon0.15_PT075H.grib2 2026-04-30 16:12 626K
20260430T12Z_MSC_GDPS_GeopotentialHeight_IsbL-0400_LatLon0.15_PT075H.grib2 2026-04-30 16:12 619K
20260430T12Z_MSC_GDPS_GeopotentialHeight_IsbL-0450_LatLon0.15_PT075H.grib2 2026-04-30 16:12 609K
20260430T12Z_MSC_GDPS_GeopotentialHeight_IsbL-0500_LatLon0.15_PT075H.grib2 2026-04-30 16:12 600K
20260430T12Z_MSC_GDPS_GeopotentialHeight_IsbL-0550_LatLon0.15_PT075H.grib2 2026-04-30 16:12 525K
20260430T12Z_MSC_GDPS_GeopotentialHeight_IsbL-0600_LatLon0.15_PT075H.grib2 2026-04-30 16:12 524K
20260430T12Z_MSC_GDPS_GeopotentialHeight_IsbL-0650_LatLon0.15_PT075H.grib2 2026-04-30 16:12 691K
20260430T12Z_MSC_GDPS_GeopotentialHeight_IsbL-0700_LatLon0.15_PT075H.grib2 2026-04-30 16:12 687K
20260430T12Z_MSC_GDPS_GeopotentialHeight_IsbL-0750_LatLon0.15_PT075H.grib2 2026-04-30 16:12 691K
20260430T12Z_MSC_GDPS_GeopotentialHeight_IsbL-0800_LatLon0.15_PT075H.grib2 2026-04-30 16:12 705K
20260430T12Z_MSC_GDPS_GeopotentialHeight_IsbL-0850_LatLon0.15_PT075H.grib2 2026-04-30 16:12 714K
20260430T12Z_MSC_GDPS_GeopotentialHeight_IsbL-0875_LatLon0.15_PT075H.grib2 2026-04-30 16:12 715K
20260430T12Z_MSC_GDPS_GeopotentialHeight_IsbL-0900_LatLon0.15_PT075H.grib2 2026-04-30 16:12 722K
20260430T12Z_MSC_GDPS_GeopotentialHeight_IsbL-0925_LatLon0.15_PT075H.grib2 2026-04-30 16:12 732K
20260430T12Z_MSC_GDPS_GeopotentialHeight_IsbL-0950_LatLon0.15_PT075H.grib2 2026-04-30 16:12 739K
20260430T12Z_MSC_GDPS_GeopotentialHeight_IsbL-0970_LatLon0.15_PT075H.grib2 2026-04-30 16:12 752K
20260430T12Z_MSC_GDPS_GeopotentialHeight_IsbL-0985_LatLon0.15_PT075H.grib2 2026-04-30 16:12 768K
20260430T12Z_MSC_GDPS_GeopotentialHeight_IsbL-1000_LatLon0.15_PT075H.grib2 2026-04-30 16:12 790K
20260430T12Z_MSC_GDPS_GeopotentialHeight_IsbL-1015_LatLon0.15_PT075H.grib2 2026-04-30 16:12 812K
20260430T12Z_MSC_GDPS_Humidex_Sfc_LatLon0.15_PT075H.grib2 2026-04-30 16:12 5.3M
20260430T12Z_MSC_GDPS_IcePellets-Accum1h_Sfc_LatLon0.15_PT075H.grib2 2026-04-30 16:12 1.6K
20260430T12Z_MSC_GDPS_IcePellets-Accum3h_Sfc_LatLon0.15_PT075H.grib2 2026-04-30 16:12 3.3K
20260430T12Z_MSC_GDPS_IcePellets-Accum_Sfc_LatLon0.15_PT075H.grib2 2026-04-30 16:12 66K
20260430T12Z_MSC_GDPS_KIndex_Sfc_LatLon0.15_PT075H.grib2 2026-04-30 16:12 6.5M
20260430T12Z_MSC_GDPS_LatentHeatNetFlux_Sfc_LatLon0.15_PT075H.grib2 2026-04-30 16:12 541K
20260430T12Z_MSC_GDPS_LiftedIndex-MU-VT_IsbL-0500_LatLon0.15_PT075H.grib2 2026-04-30 16:12 5.4M
20260430T12Z_MSC_GDPS_NetLongwaveRadiationFlux-Accum_Sfc_LatLon0.15_PT075H.grib2 2026-04-30 16:12 1.0M
20260430T12Z_MSC_GDPS_NetShortwaveRadiationFlux-Accum_Sfc_LatLon0.15_PT075H.grib2 2026-04-30 16:12 1.1M
20260430T12Z_MSC_GDPS_O3MixingRatio_Sfc_LatLon0.15_PT075H.grib2 2026-04-30 16:44 1.9M
20260430T12Z_MSC_GDPS_O3_EAtm_LatLon0.15_PT075H.grib2 2026-04-30 16:44 2.4M
20260430T12Z_MSC_GDPS_PlanetaryBoundaryLayerHeight_Sfc_LatLon0.15_PT075H.grib2 2026-04-30 16:12 2.5M
20260430T12Z_MSC_GDPS_Precip-Accum1h_Sfc_LatLon0.15_PT075H.grib2 2026-04-30 16:12 3.2M
20260430T12Z_MSC_GDPS_Precip-Accum3h_Sfc_LatLon0.15_PT075H.grib2 2026-04-30 16:12 3.5M
20260430T12Z_MSC_GDPS_Precip-Accum_Sfc_LatLon0.15_PT075H.grib2 2026-04-30 16:12 5.2M
20260430T12Z_MSC_GDPS_PrecipRate_Sfc_LatLon0.15_PT075H.grib2 2026-04-30 16:12 3.0M
20260430T12Z_MSC_GDPS_PrecipType-Instant_Sfc_LatLon0.15_PT075H.grib2 2026-04-30 16:12 1.6M
20260430T12Z_MSC_GDPS_Pressure_MSL_LatLon0.15_PT075H.grib2 2026-04-30 16:12 825K
20260430T12Z_MSC_GDPS_Pressure_PVU-1.5_LatLon0.15_PT075H.grib2 2026-04-30 16:12 5.8M
20260430T12Z_MSC_GDPS_Pressure_PVU-1_LatLon0.15_PT075H.grib2 2026-04-30 16:12 6.0M
20260430T12Z_MSC_GDPS_Pressure_PVU-2_LatLon0.15_PT075H.grib2 2026-04-30 16:12 5.6M
20260430T12Z_MSC_GDPS_Pressure_Sfc_LatLon0.15_PT075H.grib2 2026-04-30 16:12 1.1M
20260430T12Z_MSC_GDPS_RadiativeTemp_Sfc_LatLon0.15_PT075H.grib2 2026-04-30 16:12 494K
20260430T12Z_MSC_GDPS_Rain-Accum1h_Sfc_LatLon0.15_PT075H.grib2 2026-04-30 16:12 1.7M
20260430T12Z_MSC_GDPS_Rain-Accum3h_Sfc_LatLon0.15_PT075H.grib2 2026-04-30 16:12 1.7M
20260430T12Z_MSC_GDPS_Rain-Accum_Sfc_LatLon0.15_PT075H.grib2 2026-04-30 16:12 3.9M
20260430T12Z_MSC_GDPS_RelativeHumidity_AGL-2m_LatLon0.15_PT075H.grib2 2026-04-30 16:12 1.1M
20260430T12Z_MSC_GDPS_RelativeHumidity_IsbL-0010_LatLon0.15_PT075H.grib2 2026-04-30 16:12 199K
20260430T12Z_MSC_GDPS_RelativeHumidity_IsbL-0020_LatLon0.15_PT075H.grib2 2026-04-30 16:12 167K
20260430T12Z_MSC_GDPS_RelativeHumidity_IsbL-0030_LatLon0.15_PT075H.grib2 2026-04-30 16:12 270K
20260430T12Z_MSC_GDPS_RelativeHumidity_IsbL-0050_LatLon0.15_PT075H.grib2 2026-04-30 16:12 424K
20260430T12Z_MSC_GDPS_RelativeHumidity_IsbL-0100_LatLon0.15_PT075H.grib2 2026-04-30 16:12 508K
20260430T12Z_MSC_GDPS_RelativeHumidity_IsbL-0150_LatLon0.15_PT075H.grib2 2026-04-30 16:12 658K
20260430T12Z_MSC_GDPS_RelativeHumidity_IsbL-0175_LatLon0.15_PT075H.grib2 2026-04-30 16:12 790K
20260430T12Z_MSC_GDPS_RelativeHumidity_IsbL-0200_LatLon0.15_PT075H.grib2 2026-04-30 16:12 711K
20260430T12Z_MSC_GDPS_RelativeHumidity_IsbL-0225_LatLon0.15_PT075H.grib2 2026-04-30 16:12 796K
20260430T12Z_MSC_GDPS_RelativeHumidity_IsbL-0250_LatLon0.15_PT075H.grib2 2026-04-30 16:12 873K
20260430T12Z_MSC_GDPS_RelativeHumidity_IsbL-0275_LatLon0.15_PT075H.grib2 2026-04-30 16:12 893K
20260430T12Z_MSC_GDPS_RelativeHumidity_IsbL-0300_LatLon0.15_PT075H.grib2 2026-04-30 16:12 933K
20260430T12Z_MSC_GDPS_RelativeHumidity_IsbL-0350_LatLon0.15_PT075H.grib2 2026-04-30 16:12 954K
20260430T12Z_MSC_GDPS_RelativeHumidity_IsbL-0400_LatLon0.15_PT075H.grib2 2026-04-30 16:12 1.0M
20260430T12Z_MSC_GDPS_RelativeHumidity_IsbL-0450_LatLon0.15_PT075H.grib2 2026-04-30 16:12 1.0M
20260430T12Z_MSC_GDPS_RelativeHumidity_IsbL-0500_LatLon0.15_PT075H.grib2 2026-04-30 16:12 1.0M
20260430T12Z_MSC_GDPS_RelativeHumidity_IsbL-0550_LatLon0.15_PT075H.grib2 2026-04-30 16:12 1.0M
20260430T12Z_MSC_GDPS_RelativeHumidity_IsbL-0600_LatLon0.15_PT075H.grib2 2026-04-30 16:12 1.0M
20260430T12Z_MSC_GDPS_RelativeHumidity_IsbL-0650_LatLon0.15_PT075H.grib2 2026-04-30 16:12 1.1M
20260430T12Z_MSC_GDPS_RelativeHumidity_IsbL-0700_LatLon0.15_PT075H.grib2 2026-04-30 16:12 1.1M
20260430T12Z_MSC_GDPS_RelativeHumidity_IsbL-0750_LatLon0.15_PT075H.grib2 2026-04-30 16:12 1.2M
20260430T12Z_MSC_GDPS_RelativeHumidity_IsbL-0800_LatLon0.15_PT075H.grib2 2026-04-30 16:12 1.3M
20260430T12Z_MSC_GDPS_RelativeHumidity_IsbL-0850_LatLon0.15_PT075H.grib2 2026-04-30 16:12 1.3M
20260430T12Z_MSC_GDPS_RelativeHumidity_IsbL-0875_LatLon0.15_PT075H.grib2 2026-04-30 16:12 1.3M
20260430T12Z_MSC_GDPS_RelativeHumidity_IsbL-0900_LatLon0.15_PT075H.grib2 2026-04-30 16:12 1.2M
20260430T12Z_MSC_GDPS_RelativeHumidity_IsbL-0925_LatLon0.15_PT075H.grib2 2026-04-30 16:12 1.2M
20260430T12Z_MSC_GDPS_RelativeHumidity_IsbL-0950_LatLon0.15_PT075H.grib2 2026-04-30 16:12 1.2M
20260430T12Z_MSC_GDPS_RelativeHumidity_IsbL-0970_LatLon0.15_PT075H.grib2 2026-04-30 16:12 1.2M
20260430T12Z_MSC_GDPS_RelativeHumidity_IsbL-0985_LatLon0.15_PT075H.grib2 2026-04-30 16:12 1.2M
20260430T12Z_MSC_GDPS_RelativeHumidity_IsbL-1000_LatLon0.15_PT075H.grib2 2026-04-30 16:12 1.1M
20260430T12Z_MSC_GDPS_RelativeHumidity_IsbL-1015_LatLon0.15_PT075H.grib2 2026-04-30 16:12 1.1M
20260430T12Z_MSC_GDPS_RelativeVorticity_IsbL-0200_LatLon0.15_PT075H.grib2 2026-04-30 16:12 1.5M
20260430T12Z_MSC_GDPS_RelativeVorticity_IsbL-0250_LatLon0.15_PT075H.grib2 2026-04-30 16:12 1.3M
20260430T12Z_MSC_GDPS_RelativeVorticity_IsbL-0500_LatLon0.15_PT075H.grib2 2026-04-30 16:12 1.4M
20260430T12Z_MSC_GDPS_RelativeVorticity_IsbL-0700_LatLon0.15_PT075H.grib2 2026-04-30 16:12 1.6M
20260430T12Z_MSC_GDPS_RelativeVorticity_IsbL-0850_LatLon0.15_PT075H.grib2 2026-04-30 16:12 1.6M
20260430T12Z_MSC_GDPS_Runoff-Accum_Sfc_LatLon0.15_PT075H.grib2 2026-04-30 16:12 155K
20260430T12Z_MSC_GDPS_SensibleHeatNetFlux_Sfc_LatLon0.15_PT075H.grib2 2026-04-30 16:12 648K
20260430T12Z_MSC_GDPS_ShowalterIndex_IsbL-0500_LatLon0.15_PT075H.grib2 2026-04-30 16:12 6.2M
20260430T12Z_MSC_GDPS_Snow-Accum1h_Sfc_LatLon0.15_PT075H.grib2 2026-04-30 16:12 1.1M
20260430T12Z_MSC_GDPS_Snow-Accum3h_Sfc_LatLon0.15_PT075H.grib2 2026-04-30 16:12 1.1M
20260430T12Z_MSC_GDPS_Snow-Accum_Sfc_LatLon0.15_PT075H.grib2 2026-04-30 16:12 1.9M
20260430T12Z_MSC_GDPS_SnowDensity_Sfc_LatLon0.15_PT075H.grib2 2026-04-30 16:12 264K
20260430T12Z_MSC_GDPS_SnowDepth_Sfc_LatLon0.15_PT075H.grib2 2026-04-30 16:12 1.7M
20260430T12Z_MSC_GDPS_SoilTemp_DBS-0to10cm_LatLon0.15_PT075H.grib2 2026-04-30 16:12 510K
20260430T12Z_MSC_GDPS_SoilTemp_Sfc_LatLon0.15_PT075H.grib2 2026-04-30 16:12 576K
20260430T12Z_MSC_GDPS_SoilVolumetricIceContent_Sfc_LatLon0.15_PT075H.grib2 2026-04-30 16:12 198K
20260430T12Z_MSC_GDPS_SoilVolumetricWaterContent_DBS-0to10cm_LatLon0.15_PT075H.grib2 2026-04-30 16:12 588K
20260430T12Z_MSC_GDPS_SoilVolumetricWaterContent_DBS-0to1cm_LatLon0.15_PT075H.grib2 2026-04-30 16:12 651K
20260430T12Z_MSC_GDPS_SpecificHumidity_AGL-120m_LatLon0.15_PT075H.grib2 2026-04-30 16:12 1.1M
20260430T12Z_MSC_GDPS_SpecificHumidity_AGL-2m_LatLon0.15_PT075H.grib2 2026-04-30 16:12 1.2M
20260430T12Z_MSC_GDPS_SpecificHumidity_AGL-40m_LatLon0.15_PT075H.grib2 2026-04-30 16:12 1.1M
20260430T12Z_MSC_GDPS_SpecificHumidity_AGL-80m_LatLon0.15_PT075H.grib2 2026-04-30 16:12 1.1M
20260430T12Z_MSC_GDPS_SpecificHumidity_IsbL-0001_LatLon0.15_PT075H.grib2 2026-04-30 16:12 1.3M
20260430T12Z_MSC_GDPS_SpecificHumidity_IsbL-0005_LatLon0.15_PT075H.grib2 2026-04-30 16:12 1.2M
20260430T12Z_MSC_GDPS_SpecificHumidity_IsbL-0010_LatLon0.15_PT075H.grib2 2026-04-30 16:12 1.3M
20260430T12Z_MSC_GDPS_SpecificHumidity_IsbL-0020_LatLon0.15_PT075H.grib2 2026-04-30 16:12 1.3M
20260430T12Z_MSC_GDPS_SpecificHumidity_IsbL-0030_LatLon0.15_PT075H.grib2 2026-04-30 16:12 1.3M
20260430T12Z_MSC_GDPS_SpecificHumidity_IsbL-0050_LatLon0.15_PT075H.grib2 2026-04-30 16:12 1.6M
20260430T12Z_MSC_GDPS_SpecificHumidity_IsbL-0100_LatLon0.15_PT075H.grib2 2026-04-30 16:12 1.3M
20260430T12Z_MSC_GDPS_SpecificHumidity_IsbL-0150_LatLon0.15_PT075H.grib2 2026-04-30 16:12 1.3M
20260430T12Z_MSC_GDPS_SpecificHumidity_IsbL-0175_LatLon0.15_PT075H.grib2 2026-04-30 16:12 1.3M
20260430T12Z_MSC_GDPS_SpecificHumidity_IsbL-0200_LatLon0.15_PT075H.grib2 2026-04-30 16:12 1.3M
20260430T12Z_MSC_GDPS_SpecificHumidity_IsbL-0225_LatLon0.15_PT075H.grib2 2026-04-30 16:12 1.3M
20260430T12Z_MSC_GDPS_SpecificHumidity_IsbL-0250_LatLon0.15_PT075H.grib2 2026-04-30 16:12 1.4M
20260430T12Z_MSC_GDPS_SpecificHumidity_IsbL-0275_LatLon0.15_PT075H.grib2 2026-04-30 16:12 1.3M
20260430T12Z_MSC_GDPS_SpecificHumidity_IsbL-0300_LatLon0.15_PT075H.grib2 2026-04-30 16:12 1.2M
20260430T12Z_MSC_GDPS_SpecificHumidity_IsbL-0350_LatLon0.15_PT075H.grib2 2026-04-30 16:12 1.2M
20260430T12Z_MSC_GDPS_SpecificHumidity_IsbL-0400_LatLon0.15_PT075H.grib2 2026-04-30 16:12 1.5M
20260430T12Z_MSC_GDPS_SpecificHumidity_IsbL-0450_LatLon0.15_PT075H.grib2 2026-04-30 16:12 1.6M
20260430T12Z_MSC_GDPS_SpecificHumidity_IsbL-0500_LatLon0.15_PT075H.grib2 2026-04-30 16:12 1.4M
20260430T12Z_MSC_GDPS_SpecificHumidity_IsbL-0550_LatLon0.15_PT075H.grib2 2026-04-30 16:12 1.6M
20260430T12Z_MSC_GDPS_SpecificHumidity_IsbL-0600_LatLon0.15_PT075H.grib2 2026-04-30 16:12 1.7M
20260430T12Z_MSC_GDPS_SpecificHumidity_IsbL-0650_LatLon0.15_PT075H.grib2 2026-04-30 16:12 1.5M
20260430T12Z_MSC_GDPS_SpecificHumidity_IsbL-0700_LatLon0.15_PT075H.grib2 2026-04-30 16:12 1.6M
20260430T12Z_MSC_GDPS_SpecificHumidity_IsbL-0750_LatLon0.15_PT075H.grib2 2026-04-30 16:12 1.7M
20260430T12Z_MSC_GDPS_SpecificHumidity_IsbL-0800_LatLon0.15_PT075H.grib2 2026-04-30 16:12 1.9M
20260430T12Z_MSC_GDPS_SpecificHumidity_IsbL-0850_LatLon0.15_PT075H.grib2 2026-04-30 16:12 1.9M
20260430T12Z_MSC_GDPS_SpecificHumidity_IsbL-0875_LatLon0.15_PT075H.grib2 2026-04-30 16:12 1.9M
20260430T12Z_MSC_GDPS_SpecificHumidity_IsbL-0900_LatLon0.15_PT075H.grib2 2026-04-30 16:12 1.6M
20260430T12Z_MSC_GDPS_SpecificHumidity_IsbL-0925_LatLon0.15_PT075H.grib2 2026-04-30 16:12 1.6M
20260430T12Z_MSC_GDPS_SpecificHumidity_IsbL-0950_LatLon0.15_PT075H.grib2 2026-04-30 16:12 1.6M
20260430T12Z_MSC_GDPS_SpecificHumidity_IsbL-0970_LatLon0.15_PT075H.grib2 2026-04-30 16:12 1.5M
20260430T12Z_MSC_GDPS_SpecificHumidity_IsbL-0985_LatLon0.15_PT075H.grib2 2026-04-30 16:12 1.5M
20260430T12Z_MSC_GDPS_SpecificHumidity_IsbL-1000_LatLon0.15_PT075H.grib2 2026-04-30 16:12 1.5M
20260430T12Z_MSC_GDPS_SpecificHumidity_IsbL-1015_LatLon0.15_PT075H.grib2 2026-04-30 16:12 1.5M
20260430T12Z_MSC_GDPS_SpecificHumidity_Sfc_LatLon0.15_PT075H.grib2 2026-04-30 16:12 676K
20260430T12Z_MSC_GDPS_Thickness_IsbL-0850to0700_LatLon0.15_PT075H.grib2 2026-04-30 16:12 469K
20260430T12Z_MSC_GDPS_Thickness_IsbL-1000to0500_LatLon0.15_PT075H.grib2 2026-04-30 16:12 373K
20260430T12Z_MSC_GDPS_Thickness_IsbL-1000to0850_LatLon0.15_PT075H.grib2 2026-04-30 16:12 492K
20260430T12Z_MSC_GDPS_TotalCloudCover_Sfc_LatLon0.15_PT075H.grib2 2026-04-30 16:12 821K
20260430T12Z_MSC_GDPS_TotalTotalsIndex_Sfc_LatLon0.15_PT075H.grib2 2026-04-30 16:12 6.2M
20260430T12Z_MSC_GDPS_UVIndex-ClearSky_Sfc_LatLon0.15_PT075H.grib2 2026-04-30 16:44 1.0M
20260430T12Z_MSC_GDPS_UVIndex_Sfc_LatLon0.15_PT075H.grib2 2026-04-30 16:44 1.5M
20260430T12Z_MSC_GDPS_UpwardLongwaveRadiationFlux_NTAtm_LatLon0.15_PT075H.grib2 2026-04-30 16:12 845K
20260430T12Z_MSC_GDPS_VerticalVelocity_IsbL-0200_LatLon0.15_PT075H.grib2 2026-04-30 16:12 1.1M
20260430T12Z_MSC_GDPS_VerticalVelocity_IsbL-0250_LatLon0.15_PT075H.grib2 2026-04-30 16:12 1.3M
20260430T12Z_MSC_GDPS_VerticalVelocity_IsbL-0500_LatLon0.15_PT075H.grib2 2026-04-30 16:12 1.3M
20260430T12Z_MSC_GDPS_VerticalVelocity_IsbL-0600_LatLon0.15_PT075H.grib2 2026-04-30 16:12 1.4M
20260430T12Z_MSC_GDPS_VerticalVelocity_IsbL-0700_LatLon0.15_PT075H.grib2 2026-04-30 16:12 1.4M
20260430T12Z_MSC_GDPS_VerticalVelocity_IsbL-0850_LatLon0.15_PT075H.grib2 2026-04-30 16:12 1.6M
20260430T12Z_MSC_GDPS_WindChill_Sfc_LatLon0.15_PT075H.grib2 2026-04-30 16:12 5.3M
20260430T12Z_MSC_GDPS_WindDir_AGL-10m_LatLon0.15_PT075H.grib2 2026-04-30 16:12 1.3M
20260430T12Z_MSC_GDPS_WindDir_AGL-120m_LatLon0.15_PT075H.grib2 2026-04-30 16:12 1.3M
20260430T12Z_MSC_GDPS_WindDir_AGL-40m_LatLon0.15_PT075H.grib2 2026-04-30 16:12 1.4M
20260430T12Z_MSC_GDPS_WindDir_AGL-80m_LatLon0.15_PT075H.grib2 2026-04-30 16:12 1.4M
20260430T12Z_MSC_GDPS_WindDir_IsbL-0001_LatLon0.15_PT075H.grib2 2026-04-30 16:12 686K
20260430T12Z_MSC_GDPS_WindDir_IsbL-0005_LatLon0.15_PT075H.grib2 2026-04-30 16:12 815K
20260430T12Z_MSC_GDPS_WindDir_IsbL-0010_LatLon0.15_PT075H.grib2 2026-04-30 16:12 831K
20260430T12Z_MSC_GDPS_WindDir_IsbL-0020_LatLon0.15_PT075H.grib2 2026-04-30 16:12 963K
20260430T12Z_MSC_GDPS_WindDir_IsbL-0030_LatLon0.15_PT075H.grib2 2026-04-30 16:12 949K
20260430T12Z_MSC_GDPS_WindDir_IsbL-0050_LatLon0.15_PT075H.grib2 2026-04-30 16:12 955K
20260430T12Z_MSC_GDPS_WindDir_IsbL-0100_LatLon0.15_PT075H.grib2 2026-04-30 16:12 1.0M
20260430T12Z_MSC_GDPS_WindDir_IsbL-0150_LatLon0.15_PT075H.grib2 2026-04-30 16:12 1.0M
20260430T12Z_MSC_GDPS_WindDir_IsbL-0175_LatLon0.15_PT075H.grib2 2026-04-30 16:12 1.1M
20260430T12Z_MSC_GDPS_WindDir_IsbL-0200_LatLon0.15_PT075H.grib2 2026-04-30 16:12 1.1M
20260430T12Z_MSC_GDPS_WindDir_IsbL-0225_LatLon0.15_PT075H.grib2 2026-04-30 16:12 1.1M
20260430T12Z_MSC_GDPS_WindDir_IsbL-0250_LatLon0.15_PT075H.grib2 2026-04-30 16:12 1.1M
20260430T12Z_MSC_GDPS_WindDir_IsbL-0275_LatLon0.15_PT075H.grib2 2026-04-30 16:12 1.2M
20260430T12Z_MSC_GDPS_WindDir_IsbL-0300_LatLon0.15_PT075H.grib2 2026-04-30 16:12 1.2M
20260430T12Z_MSC_GDPS_WindDir_IsbL-0350_LatLon0.15_PT075H.grib2 2026-04-30 16:12 1.2M
20260430T12Z_MSC_GDPS_WindDir_IsbL-0400_LatLon0.15_PT075H.grib2 2026-04-30 16:12 1.3M
20260430T12Z_MSC_GDPS_WindDir_IsbL-0450_LatLon0.15_PT075H.grib2 2026-04-30 16:12 1.3M
20260430T12Z_MSC_GDPS_WindDir_IsbL-0500_LatLon0.15_PT075H.grib2 2026-04-30 16:12 1.3M
20260430T12Z_MSC_GDPS_WindDir_IsbL-0550_LatLon0.15_PT075H.grib2 2026-04-30 16:12 1.4M
20260430T12Z_MSC_GDPS_WindDir_IsbL-0600_LatLon0.15_PT075H.grib2 2026-04-30 16:12 1.4M
20260430T12Z_MSC_GDPS_WindDir_IsbL-0650_LatLon0.15_PT075H.grib2 2026-04-30 16:12 1.5M
20260430T12Z_MSC_GDPS_WindDir_IsbL-0700_LatLon0.15_PT075H.grib2 2026-04-30 16:12 1.6M
20260430T12Z_MSC_GDPS_WindDir_IsbL-0750_LatLon0.15_PT075H.grib2 2026-04-30 16:12 1.7M
20260430T12Z_MSC_GDPS_WindDir_IsbL-0800_LatLon0.15_PT075H.grib2 2026-04-30 16:12 1.8M
20260430T12Z_MSC_GDPS_WindDir_IsbL-0850_LatLon0.15_PT075H.grib2 2026-04-30 16:12 1.9M
20260430T12Z_MSC_GDPS_WindDir_IsbL-0875_LatLon0.15_PT075H.grib2 2026-04-30 16:12 1.9M
20260430T12Z_MSC_GDPS_WindDir_IsbL-0900_LatLon0.15_PT075H.grib2 2026-04-30 16:12 2.0M
20260430T12Z_MSC_GDPS_WindDir_IsbL-0925_LatLon0.15_PT075H.grib2 2026-04-30 16:12 2.0M
20260430T12Z_MSC_GDPS_WindDir_IsbL-0950_LatLon0.15_PT075H.grib2 2026-04-30 16:12 2.0M
20260430T12Z_MSC_GDPS_WindDir_IsbL-0970_LatLon0.15_PT075H.grib2 2026-04-30 16:12 2.0M
20260430T12Z_MSC_GDPS_WindDir_IsbL-0985_LatLon0.15_PT075H.grib2 2026-04-30 16:12 2.0M
20260430T12Z_MSC_GDPS_WindDir_IsbL-1000_LatLon0.15_PT075H.grib2 2026-04-30 16:12 2.0M
20260430T12Z_MSC_GDPS_WindDir_IsbL-1015_LatLon0.15_PT075H.grib2 2026-04-30 16:12 2.0M
20260430T12Z_MSC_GDPS_WindGust-Max_AGL-10m_LatLon0.15_PT075H.grib2 2026-04-30 16:12 2.2M
20260430T12Z_MSC_GDPS_WindGust-Min_AGL-10m_LatLon0.15_PT075H.grib2 2026-04-30 16:12 2.2M
20260430T12Z_MSC_GDPS_WindGust_AGL-10m_LatLon0.15_PT075H.grib2 2026-04-30 16:12 2.2M
20260430T12Z_MSC_GDPS_WindSpeed_AGL-10m_LatLon0.15_PT075H.grib2 2026-04-30 16:12 1.1M
20260430T12Z_MSC_GDPS_WindSpeed_AGL-120m_LatLon0.15_PT075H.grib2 2026-04-30 16:12 1.2M
20260430T12Z_MSC_GDPS_WindSpeed_AGL-40m_LatLon0.15_PT075H.grib2 2026-04-30 16:12 1.2M
20260430T12Z_MSC_GDPS_WindSpeed_AGL-80m_LatLon0.15_PT075H.grib2 2026-04-30 16:12 1.2M
20260430T12Z_MSC_GDPS_WindSpeed_IsbL-0001_LatLon0.15_PT075H.grib2 2026-04-30 16:12 640K
20260430T12Z_MSC_GDPS_WindSpeed_IsbL-0005_LatLon0.15_PT075H.grib2 2026-04-30 16:12 692K
20260430T12Z_MSC_GDPS_WindSpeed_IsbL-0010_LatLon0.15_PT075H.grib2 2026-04-30 16:12 625K
20260430T12Z_MSC_GDPS_WindSpeed_IsbL-0020_LatLon0.15_PT075H.grib2 2026-04-30 16:12 668K
20260430T12Z_MSC_GDPS_WindSpeed_IsbL-0030_LatLon0.15_PT075H.grib2 2026-04-30 16:12 868K
20260430T12Z_MSC_GDPS_WindSpeed_IsbL-0050_LatLon0.15_PT075H.grib2 2026-04-30 16:12 911K
20260430T12Z_MSC_GDPS_WindSpeed_IsbL-0100_LatLon0.15_PT075H.grib2 2026-04-30 16:12 1.1M
20260430T12Z_MSC_GDPS_WindSpeed_IsbL-0150_LatLon0.15_PT075H.grib2 2026-04-30 16:12 951K
20260430T12Z_MSC_GDPS_WindSpeed_IsbL-0175_LatLon0.15_PT075H.grib2 2026-04-30 16:12 1.0M
20260430T12Z_MSC_GDPS_WindSpeed_IsbL-0200_LatLon0.15_PT075H.grib2 2026-04-30 16:12 1.1M
20260430T12Z_MSC_GDPS_WindSpeed_IsbL-0225_LatLon0.15_PT075H.grib2 2026-04-30 16:12 1.1M
20260430T12Z_MSC_GDPS_WindSpeed_IsbL-0250_LatLon0.15_PT075H.grib2 2026-04-30 16:12 1.1M
20260430T12Z_MSC_GDPS_WindSpeed_IsbL-0275_LatLon0.15_PT075H.grib2 2026-04-30 16:12 1.1M
20260430T12Z_MSC_GDPS_WindSpeed_IsbL-0300_LatLon0.15_PT075H.grib2 2026-04-30 16:12 1.1M
20260430T12Z_MSC_GDPS_WindSpeed_IsbL-0350_LatLon0.15_PT075H.grib2 2026-04-30 16:12 1.1M
20260430T12Z_MSC_GDPS_WindSpeed_IsbL-0400_LatLon0.15_PT075H.grib2 2026-04-30 16:12 1.1M
20260430T12Z_MSC_GDPS_WindSpeed_IsbL-0450_LatLon0.15_PT075H.grib2 2026-04-30 16:12 1.1M
20260430T12Z_MSC_GDPS_WindSpeed_IsbL-0500_LatLon0.15_PT075H.grib2 2026-04-30 16:12 1.1M
20260430T12Z_MSC_GDPS_WindSpeed_IsbL-0550_LatLon0.15_PT075H.grib2 2026-04-30 16:12 1.1M
20260430T12Z_MSC_GDPS_WindSpeed_IsbL-0600_LatLon0.15_PT075H.grib2 2026-04-30 16:12 1.4M
20260430T12Z_MSC_GDPS_WindSpeed_IsbL-0650_LatLon0.15_PT075H.grib2 2026-04-30 16:12 1.5M
20260430T12Z_MSC_GDPS_WindSpeed_IsbL-0700_LatLon0.15_PT075H.grib2 2026-04-30 16:12 1.5M
20260430T12Z_MSC_GDPS_WindSpeed_IsbL-0750_LatLon0.15_PT075H.grib2 2026-04-30 16:12 1.6M
20260430T12Z_MSC_GDPS_WindSpeed_IsbL-0800_LatLon0.15_PT075H.grib2 2026-04-30 16:12 1.7M
20260430T12Z_MSC_GDPS_WindSpeed_IsbL-0850_LatLon0.15_PT075H.grib2 2026-04-30 16:12 1.7M
20260430T12Z_MSC_GDPS_WindSpeed_IsbL-0875_LatLon0.15_PT075H.grib2 2026-04-30 16:12 1.8M
20260430T12Z_MSC_GDPS_WindSpeed_IsbL-0900_LatLon0.15_PT075H.grib2 2026-04-30 16:12 1.8M
20260430T12Z_MSC_GDPS_WindSpeed_IsbL-0925_LatLon0.15_PT075H.grib2 2026-04-30 16:12 1.8M
20260430T12Z_MSC_GDPS_WindSpeed_IsbL-0950_LatLon0.15_PT075H.grib2 2026-04-30 16:12 1.9M
20260430T12Z_MSC_GDPS_WindSpeed_IsbL-0970_LatLon0.15_PT075H.grib2 2026-04-30 16:12 1.9M
20260430T12Z_MSC_GDPS_WindSpeed_IsbL-0985_LatLon0.15_PT075H.grib2 2026-04-30 16:12 1.9M
20260430T12Z_MSC_GDPS_WindSpeed_IsbL-1000_LatLon0.15_PT075H.grib2 2026-04-30 16:12 1.8M
20260430T12Z_MSC_GDPS_WindSpeed_IsbL-1015_LatLon0.15_PT075H.grib2 2026-04-30 16:12 1.8M
20260430T12Z_MSC_GDPS_WindU_AGL-10m_LatLon0.15_PT075H.grib2 2026-04-30 16:12 1.3M
20260430T12Z_MSC_GDPS_WindU_AGL-120m_LatLon0.15_PT075H.grib2 2026-04-30 16:12 1.0M
20260430T12Z_MSC_GDPS_WindU_AGL-40m_LatLon0.15_PT075H.grib2 2026-04-30 16:12 971K
20260430T12Z_MSC_GDPS_WindU_AGL-80m_LatLon0.15_PT075H.grib2 2026-04-30 16:12 1.0M
20260430T12Z_MSC_GDPS_WindU_IsbL-0001_LatLon0.15_PT075H.grib2 2026-04-30 16:12 497K
20260430T12Z_MSC_GDPS_WindU_IsbL-0005_LatLon0.15_PT075H.grib2 2026-04-30 16:12 690K
20260430T12Z_MSC_GDPS_WindU_IsbL-0010_LatLon0.15_PT075H.grib2 2026-04-30 16:12 702K
20260430T12Z_MSC_GDPS_WindU_IsbL-0020_LatLon0.15_PT075H.grib2 2026-04-30 16:12 733K
20260430T12Z_MSC_GDPS_WindU_IsbL-0030_LatLon0.15_PT075H.grib2 2026-04-30 16:12 741K
20260430T12Z_MSC_GDPS_WindU_IsbL-0050_LatLon0.15_PT075H.grib2 2026-04-30 16:12 769K
20260430T12Z_MSC_GDPS_WindU_IsbL-0100_LatLon0.15_PT075H.grib2 2026-04-30 16:12 926K
20260430T12Z_MSC_GDPS_WindU_IsbL-0150_LatLon0.15_PT075H.grib2 2026-04-30 16:12 1.0M
20260430T12Z_MSC_GDPS_WindU_IsbL-0175_LatLon0.15_PT075H.grib2 2026-04-30 16:12 1.0M
20260430T12Z_MSC_GDPS_WindU_IsbL-0200_LatLon0.15_PT075H.grib2 2026-04-30 16:12 841K
20260430T12Z_MSC_GDPS_WindU_IsbL-0225_LatLon0.15_PT075H.grib2 2026-04-30 16:12 855K
20260430T12Z_MSC_GDPS_WindU_IsbL-0250_LatLon0.15_PT075H.grib2 2026-04-30 16:12 860K
20260430T12Z_MSC_GDPS_WindU_IsbL-0275_LatLon0.15_PT075H.grib2 2026-04-30 16:12 888K
20260430T12Z_MSC_GDPS_WindU_IsbL-0300_LatLon0.15_PT075H.grib2 2026-04-30 16:12 880K
20260430T12Z_MSC_GDPS_WindU_IsbL-0350_LatLon0.15_PT075H.grib2 2026-04-30 16:12 891K
20260430T12Z_MSC_GDPS_WindU_IsbL-0400_LatLon0.15_PT075H.grib2 2026-04-30 16:12 894K
20260430T12Z_MSC_GDPS_WindU_IsbL-0450_LatLon0.15_PT075H.grib2 2026-04-30 16:12 1.1M
20260430T12Z_MSC_GDPS_WindU_IsbL-0500_LatLon0.15_PT075H.grib2 2026-04-30 16:12 1.1M
20260430T12Z_MSC_GDPS_WindU_IsbL-0550_LatLon0.15_PT075H.grib2 2026-04-30 16:12 1.1M
20260430T12Z_MSC_GDPS_WindU_IsbL-0600_LatLon0.15_PT075H.grib2 2026-04-30 16:12 1.2M
20260430T12Z_MSC_GDPS_WindU_IsbL-0650_LatLon0.15_PT075H.grib2 2026-04-30 16:12 1.2M
20260430T12Z_MSC_GDPS_WindU_IsbL-0700_LatLon0.15_PT075H.grib2 2026-04-30 16:12 1.2M
20260430T12Z_MSC_GDPS_WindU_IsbL-0750_LatLon0.15_PT075H.grib2 2026-04-30 16:12 1.3M
20260430T12Z_MSC_GDPS_WindU_IsbL-0800_LatLon0.15_PT075H.grib2 2026-04-30 16:12 1.4M
20260430T12Z_MSC_GDPS_WindU_IsbL-0850_LatLon0.15_PT075H.grib2 2026-04-30 16:12 1.4M
20260430T12Z_MSC_GDPS_WindU_IsbL-0875_LatLon0.15_PT075H.grib2 2026-04-30 16:12 1.5M
20260430T12Z_MSC_GDPS_WindU_IsbL-0900_LatLon0.15_PT075H.grib2 2026-04-30 16:12 1.5M
20260430T12Z_MSC_GDPS_WindU_IsbL-0925_LatLon0.15_PT075H.grib2 2026-04-30 16:12 1.5M
20260430T12Z_MSC_GDPS_WindU_IsbL-0950_LatLon0.15_PT075H.grib2 2026-04-30 16:12 1.4M
20260430T12Z_MSC_GDPS_WindU_IsbL-0970_LatLon0.15_PT075H.grib2 2026-04-30 16:12 1.4M
20260430T12Z_MSC_GDPS_WindU_IsbL-0985_LatLon0.15_PT075H.grib2 2026-04-30 16:12 1.4M
20260430T12Z_MSC_GDPS_WindU_IsbL-1000_LatLon0.15_PT075H.grib2 2026-04-30 16:12 1.4M
20260430T12Z_MSC_GDPS_WindU_IsbL-1015_LatLon0.15_PT075H.grib2 2026-04-30 16:12 1.4M
20260430T12Z_MSC_GDPS_WindV_AGL-10m_LatLon0.15_PT075H.grib2 2026-04-30 16:12 1.3M
20260430T12Z_MSC_GDPS_WindV_AGL-120m_LatLon0.15_PT075H.grib2 2026-04-30 16:12 1.0M
20260430T12Z_MSC_GDPS_WindV_AGL-40m_LatLon0.15_PT075H.grib2 2026-04-30 16:12 964K
20260430T12Z_MSC_GDPS_WindV_AGL-80m_LatLon0.15_PT075H.grib2 2026-04-30 16:12 971K
20260430T12Z_MSC_GDPS_WindV_IsbL-0001_LatLon0.15_PT075H.grib2 2026-04-30 16:12 710K
20260430T12Z_MSC_GDPS_WindV_IsbL-0005_LatLon0.15_PT075H.grib2 2026-04-30 16:12 857K
20260430T12Z_MSC_GDPS_WindV_IsbL-0010_LatLon0.15_PT075H.grib2 2026-04-30 16:12 883K
20260430T12Z_MSC_GDPS_WindV_IsbL-0020_LatLon0.15_PT075H.grib2 2026-04-30 16:12 937K
20260430T12Z_MSC_GDPS_WindV_IsbL-0030_LatLon0.15_PT075H.grib2 2026-04-30 16:12 939K
20260430T12Z_MSC_GDPS_WindV_IsbL-0050_LatLon0.15_PT075H.grib2 2026-04-30 16:12 1.0M
20260430T12Z_MSC_GDPS_WindV_IsbL-0100_LatLon0.15_PT075H.grib2 2026-04-30 16:12 859K
20260430T12Z_MSC_GDPS_WindV_IsbL-0150_LatLon0.15_PT075H.grib2 2026-04-30 16:12 1.0M
20260430T12Z_MSC_GDPS_WindV_IsbL-0175_LatLon0.15_PT075H.grib2 2026-04-30 16:12 1.0M
20260430T12Z_MSC_GDPS_WindV_IsbL-0200_LatLon0.15_PT075H.grib2 2026-04-30 16:12 842K
20260430T12Z_MSC_GDPS_WindV_IsbL-0225_LatLon0.15_PT075H.grib2 2026-04-30 16:12 851K
20260430T12Z_MSC_GDPS_WindV_IsbL-0250_LatLon0.15_PT075H.grib2 2026-04-30 16:12 853K
20260430T12Z_MSC_GDPS_WindV_IsbL-0275_LatLon0.15_PT075H.grib2 2026-04-30 16:12 938K
20260430T12Z_MSC_GDPS_WindV_IsbL-0300_LatLon0.15_PT075H.grib2 2026-04-30 16:12 928K
20260430T12Z_MSC_GDPS_WindV_IsbL-0350_LatLon0.15_PT075H.grib2 2026-04-30 16:12 937K
20260430T12Z_MSC_GDPS_WindV_IsbL-0400_LatLon0.15_PT075H.grib2 2026-04-30 16:12 882K
20260430T12Z_MSC_GDPS_WindV_IsbL-0450_LatLon0.15_PT075H.grib2 2026-04-30 16:12 881K
20260430T12Z_MSC_GDPS_WindV_IsbL-0500_LatLon0.15_PT075H.grib2 2026-04-30 16:12 887K
20260430T12Z_MSC_GDPS_WindV_IsbL-0550_LatLon0.15_PT075H.grib2 2026-04-30 16:12 1.1M
20260430T12Z_MSC_GDPS_WindV_IsbL-0600_LatLon0.15_PT075H.grib2 2026-04-30 16:12 1.1M
20260430T12Z_MSC_GDPS_WindV_IsbL-0650_LatLon0.15_PT075H.grib2 2026-04-30 16:12 1.2M
20260430T12Z_MSC_GDPS_WindV_IsbL-0700_LatLon0.15_PT075H.grib2 2026-04-30 16:12 1.2M
20260430T12Z_MSC_GDPS_WindV_IsbL-0750_LatLon0.15_PT075H.grib2 2026-04-30 16:12 1.3M
20260430T12Z_MSC_GDPS_WindV_IsbL-0800_LatLon0.15_PT075H.grib2 2026-04-30 16:12 1.3M
20260430T12Z_MSC_GDPS_WindV_IsbL-0850_LatLon0.15_PT075H.grib2 2026-04-30 16:12 1.4M
20260430T12Z_MSC_GDPS_WindV_IsbL-0875_LatLon0.15_PT075H.grib2 2026-04-30 16:12 1.4M
20260430T12Z_MSC_GDPS_WindV_IsbL-0900_LatLon0.15_PT075H.grib2 2026-04-30 16:12 1.5M
20260430T12Z_MSC_GDPS_WindV_IsbL-0925_LatLon0.15_PT075H.grib2 2026-04-30 16:12 1.4M
20260430T12Z_MSC_GDPS_WindV_IsbL-0950_LatLon0.15_PT075H.grib2 2026-04-30 16:12 1.4M
20260430T12Z_MSC_GDPS_WindV_IsbL-0970_LatLon0.15_PT075H.grib2 2026-04-30 16:12 1.4M
20260430T12Z_MSC_GDPS_WindV_IsbL-0985_LatLon0.15_PT075H.grib2 2026-04-30 16:12 1.4M
20260430T12Z_MSC_GDPS_WindV_IsbL-1000_LatLon0.15_PT075H.grib2 2026-04-30 16:12 1.4M
20260430T12Z_MSC_GDPS_WindV_IsbL-1015_LatLon0.15_PT075H.grib2 2026-04-30 16:12 1.3M